Location: Natural Bridges National Monument
(37.6093°N, 109.9767°W)
Time: 16:17:59
(UTC-06:00)

Cosmos 1727 Rocket - Visible Passes

Search period start: 20 April 2014 00:00
Search period end: 30 April 2014 00:00
Orbit: 962 x 996 km, 82.9° (Epoch: 20 April)

Date Brightness Start Highest point End Pass type
(mag) Time Alt. Az. Time Alt. Az. Time Alt. Az.
20 Apr 3.9 22:19:43 10° N 22:26:03 69° E 22:26:42 64° ESE visible
21 Apr 6.1 00:07:10 10° NW 00:10:44 16° W 00:11:28 16° W visible
21 Apr 5.5 21:02:22 10° NNE 21:06:27 18° ENE 21:08:37 15° E visible
21 Apr 4.2 22:46:11 10° NNW 22:52:26 65° W 22:53:22 57° SW visible
22 Apr 4.8 21:27:38 10° NNE 21:33:16 33° ENE 21:35:18 27° ESE visible
22 Apr 5.2 23:13:04 10° NNW 23:18:38 34° W 23:20:04 30° WSW visible
23 Apr 4.0 21:53:36 10° N 21:59:52 62° E 22:02:02 40° SE visible
23 Apr 6.1 23:40:41 10° NW 23:44:39 18° W 23:46:48 15° WSW visible
24 Apr 5.6 20:36:33 10° NNE 20:40:12 16° ENE 20:43:50 10° ESE visible
24 Apr 4.1 22:20:00 10° N 22:26:17 72° W 22:28:47 38° SSW visible
25 Apr 4.9 21:01:37 10° NNE 21:07:03 30° ENE 21:10:47 17° ESE visible
25 Apr 5.2 22:46:48 10° NNW 22:52:31 38° W 22:55:34 24° SW visible
26 Apr 4.1 21:27:30 10° N 21:33:41 55° E 21:37:36 23° SSE visible
26 Apr 6.1 23:14:15 10° NW 23:18:34 20° W 23:22:23 12° WSW visible
27 Apr 4.1 21:53:49 10° N 22:00:08 80° W 22:04:28 21° S visible
28 Apr 5.0 20:35:37 10° NNE 20:40:50 27° ENE 20:45:59 10° SE visible
28 Apr 5.1 22:20:32 10° NNW 22:26:23 42° W 22:31:21 14° SSW visible
29 Apr 4.3 21:01:24 10° N 21:07:30 50° E 21:13:30 10° SSE visible
29 Apr 6.1 22:47:51 10° NW 22:52:28 22° W 22:57:03 10° SW visible
